Weather observations for the past three days for
Grand Rapids, Grand Rapids/Itasca County Airport-Gordon Newstrom Field
Metric (Imperial)
Date Time (cdt) Wind (kph) Vis. (km) Weather Sky Cond. Temperature (ºC) Relative Humidity Wind Chill (°C) Heat Index (°C) Pressure Precipitation (cm)
Air Dwpt 6 hour altimeter (cm) sea level (mb) 1 hr 3 hr 6 hr
Max. Min.
21 12:56 SE 11 16.09 Fair CLR 21.7 13.3 21.7 11.7 59% 76.73 1023.2
21 11:56 Vrbl 6 16.09 Fair CLR 20.6 13.3 63% 76.78 1023.8
21 10:56 Vrbl 7 16.09 Fair CLR 19.4 12.8 66% 76.81 1024.3
21 09:56 E 11 16.09 Fair CLR 17.2 12.2 73% 76.81 1024.4
21 08:56 E 7 16.09 Fair CLR 15 11.1 78% 76.89 1025.3
21 07:56 Calm 16.09 Fair CLR 12.8 10.6 87% 76.91 1025.8
21 06:56 Calm 16.09 Fair CLR 11.7 10.6 13.3 10.6 93% 76.91 1025.8
21 05:56 Calm 16.09 Fair CLR 10.6 10 96% 76.89 1025.6
21 04:56 Calm 16.09 Fair CLR 10.6 10 96% 76.89 1025.6
21 03:56 Calm 16.09 Fair CLR 11.7 10 89% 76.94 1026.0
21 02:56 Calm 16.09 Fair CLR 10.6 10 96% 76.96 1026.4
21 01:56 Calm 16.09 Fair CLR 11.1 10.6 97% 76.99 1026.7
21 00:56 SE 6 16.09 Fair CLR 12.2 10 19.4 12.2 87% 76.96 1026.5
20 23:56 SE 7 16.09 Fair CLR 13.9 10.6 81% 76.99 1026.7
20 22:56 Calm 16.09 Fair CLR 13.9 11.1 83% 76.96 1026.5
20 21:56 Calm 16.09 Fair CLR 13.3 12.2 93% 76.99 1026.8
20 20:56 Calm 16.09 Mostly Cloudy FEW075 BKN090 17.2 12.2 73% 77.01 1026.9
20 18:56 E 7 16.09 Mostly Cloudy BKN085 18.9 10.6 19.4 17.8 59% 77.04 1027.5
20 17:56 Vrbl 6 16.09 Overcast OVC080 18.9 10.6 59% 77.04 1027.4
20 16:56 E 6 16.09 Partly Cloudy SCT080 19.4 10 55% 77.09 1027.9
20 15:56 SE 6 16.09 Overcast OVC080 18.9 10 56% 77.14 1028.7
20 14:56 Calm 16.09 A Few Clouds FEW090 18.9 10 56% 77.19 1029.5
20 13:56 S 13 16.09 Mostly Cloudy BKN090 18.9 10.6 59% 77.22 1029.7
20 12:56 S 9 11.27 Mostly Cloudy BKN090 18.3 10.6 18.3 13.3 61% 77.24 1030.1
20 11:56 S 13 16.09 Partly Cloudy SCT100 17.8 11.1 65% 77.24 1030.4
20 10:56 S 11 16.09 Fair CLR 17.2 10.6 65% 77.27 1030.5
20 09:56 SE 9 16.09 A Few Clouds FEW100 16.7 10.6 67% 77.27 1030.5
20 08:56 Calm 16.09 Mostly Cloudy BKN100 15.6 10.6 72% 77.27 1030.4
20 07:56 Calm 16.09 A Few Clouds FEW110 14.4 10.6 78% 77.22 1029.9
20 06:56 Calm 16.09 Fair CLR 13.3 11.7 13.3 11.7 90% 77.24 1030.0
20 05:56 SE 6 16.09 Fair CLR 11.7 11.7 100% 77.22 1030.1
20 04:56 Calm 16.09 Fair CLR 11.7 11.7 100% 77.19 1029.6
20 03:56 Calm 16.09 Fair CLR 11.7 11.1 96% 77.22 1029.9
20 02:56 S 6 16.09 Fair CLR 11.7 11.1 96% 77.19 1029.7
20 01:56 Calm 16.09 Fair CLR 11.7 11.1 96% 77.17 1029.4
20 00:56 Calm 16.09 Fair CLR 12.2 10.6 19.4 11.7 90% 77.17 1029.1
19 23:56 Calm 16.09 Fair CLR 12.2 10.6 90% 77.14 1029.0
19 22:56 Calm 16.09 Fair CLR 12.2 10 87% 77.11 1028.8
19 21:56 Calm 16.09 Fair CLR 13.3 11.7 90% 77.11 1028.5
19 20:56 Calm 16.09 Fair CLR 15 11.7 81% 77.06 1027.8
19 19:56 Calm 16.09 Fair CLR 18.9 7.8 49% 77.04 1027.3
19 18:56 NW 13 14.48 Fair CLR 19.4 8.9 19.4 16.7 51% 77.01 1027.0
19 17:56 Calm 16.09 A Few Clouds FEW049 18.3 8.3 52% 77.01 1027.0
19 16:56 NW 13 16.09 Mostly Cloudy BKN049 18.9 8.9 52% 77.01 1026.9
19 15:56 NW 11 16.09 A Few Clouds FEW045 18.3 8.9 54% 77.01 1026.8
19 14:56 NW 9 16.09 Mostly Cloudy BKN041 17.8 8.9 56% 76.99 1026.6
19 13:56 NW 17 16.09 Mostly Cloudy BKN039 17.2 8.9 58% 76.96 1026.3
19 12:56 W 13 16.09 Mostly Cloudy BKN035 16.7 8.9 16.7 11.7 60% 76.94 1025.8
19 11:56 NW 19 16.09 Partly Cloudy SCT033 16.1 8.3 60% 76.89 1025.3
19 10:56 N 22 1.61 Partly Cloudy with Haze SCT031 14.4 8.3 67% 76.84 1024.6
19 09:56 NW 24 G 33 16.09 Partly Cloudy SCT022 13.9 8.9 72% 76.73 1023.4
19 08:56 NW 20 16.09 Overcast BKN020 OVC024 12.2 8.3 77% 76.66 1022.5
19 07:56 NW 24 16.09 Overcast OVC013 12.8 10 83% 76.58 1021.1
19 06:56 NW 28 16.09 Overcast OVC011 12.2 10.6 16.1 12.2 90% 76.45 1019.5
19 05:56 NW 20 G 35 4.83 Light Rain Fog/Mist OVC008 13.9 12.8 93% 76.28 1017.2
19 04:56 W 19 G 30 16.09 Overcast OVC011 15 13.3 90% 76.12 1015.0
19 03:56 W 17 16.09 Overcast BKN010 OVC018 15.6 14.4 93% 76.02 1013.6
19 02:56 W 22 16.09 Overcast OVC006 16.1 15 93% 75.92 1012.1
19 01:56 NW 17 14.48 Overcast BKN006 OVC010 15.6 15 96% 75.84 1011.1
19 00:56 NW 15 12.87 Overcast OVC004 16.1 15.6 18.3 16.1 97% 75.82 1010.7 0.13
18 23:56 W 17 16.09 Overcast OVC004 16.7 16.1 96% 75.77 1009.9
18 22:56 NW 20 14.48 Overcast OVC006 16.7 16.1 96% 75.62 1008.1
18 21:56 NW 15 16.09 Overcast BKN006 OVC012 17.2 16.7 97% 75.59 1007.6 0.03 0.13
18 20:56 NW 13 16.09 Overcast OVC008 17.2 16.7 97% 75.49 1006.4 0.08
18 19:56 N 11 16.09 Light Rain OVC006 17.8 17.2 96% 75.36 1004.5 0.03
18 18:56 Calm 14.48 Thunderstorm in Vicinity Rain BKN010 BKN020 OVC030 18.3 17.8 23.3 17.8 97% 75.31 1003.9 0.33 5.87
18 17:56 Calm 4.83 Thunderstorm in Vicinity Rain Fog/Mist SCT011 BKN026 OVC070 17.8 17.8 100% 75.31 1003.8 3.28
18 16:56 NW 6 3.22 Thunderstorm Heavy Rain Fog/Mist BKN005 BKN014 OVC020 18.9 18.3 96% 75.31 1003.9 1.3
18 15:56 NE 13 8.05 Heavy Rain Fog/Mist SCT006 BKN014 OVC038 18.3 17.8 97% 75.16 1002.0 0.91 0.97
18 14:56 S 20 16.09 Overcast OVC008 22.8 22.2 96% 75.11 1001.0
18 13:56 S 17 16.09 Overcast OVC006 21.7 21.1 96% 75.13 1001.5 0.05
Date Time (cdt) Wind (kph) Vis. (km) Weather Sky Cond. Air Dwpt Max. Min. Relative Humidity Wind Chill (°C) Heat Index (°C) altimeter (cm) sea level (mb) 1 hr 3 hr 6 hr
6 hour
Temperature (ºC) Pressure Precipitation (cm)